Regional Weather Roundup
Issued by NWS Green Bay, WI

Home | Current Version | Previous Version | Text Only | Print | Product List | Glossary On
Versions: 1 2 3 4 5 6 7 8 9 10 11 12 13 14 15 16 17 18 19 20 21 22 23 24 25 26 27 28 29 30 31 32 33 34 35 36 37 38 39 40 41 42 43 44 45 46 47 48 49 50
000
ASUS43 KGRB 170110
RWRGRB

NORTH-CENTRAL AND NORTHEAST WISCONSIN REGIONAL WEATHER ROUNDUP
NATIONAL WEATHER SERVICE GREEN BAY WI
800 PM CDT TUE SEP 16 2014

WIZ005-009-010>012-018-019-170200-
NORTH CENTRAL WISCONSIN

CITY           SKY/WX    TMP DP  RH WIND       PRES   REMARKS
IRONWOOD       PTCLDY    57  46  67 SW7       29.97S
MANITOWISH WTR CLEAR     53  42  67 SW3       30.02S
ARBOR VITAE    CLEAR     52  45  77 SW3       30.03S
EAGLE RIVER    CLEAR     49  42  76 SW3       30.02S
LAND O LAKES   PTCLDY    54  42  64 CALM      30.02S
RHINELANDER    CLEAR     49  43  80 W3        30.04S
PHILLIPS       CLEAR     52  45  76 CALM      30.03S
ANTIGO         CLEAR     50  43  78 SW6       30.05S
TOMAHAWK       CLEAR     51  43  73 CALM      30.05S
MERRILL        MOCLDY    52  44  75 CALM      30.05S
$$

WIZ013-073-170200-
NORTHEAST WISCONSIN

CITY           SKY/WX    TMP DP  RH WIND       PRES   REMARKS
IRON MOUNTAIN  CLEAR     55  43  63 CALM      29.99S
MARINETTE      CLEAR     57  45  62 SW7       30.01S
OCONTO         CLEAR     51  47  86 SW3       30.03S
$$

WIZ017-030-035>037-045-170200-
CENTRAL WISCONSIN

CITY           SKY/WX    TMP DP  RH WIND       PRES   REMARKS
MEDFORD        CLEAR     52  44  74 SW5       30.05S
WAUSAU         CLEAR     56  46  69 SW7       30.05R
MOSINEE        CLEAR     52  46  82 SW5       30.07S
MARSHFIELD     CLEAR     54  46  74 S5        30.06S
WISC RAPIDS      N/A     50  48  93 CALM      30.08S
STEVENS POINT  PTCLDY    51  43  76 CALM      30.07S
WAUPACA        CLEAR     54  46  72 CALM      30.07R
SHAWANO        CLEAR     57  46  66 CALM      30.05S
CLINTONVILLE   CLEAR     52  45  76 SW6       30.06R
$$

WIZ038-039-048-051-170200-
FOX VALLEY

CITY           SKY/WX    TMP DP  RH WIND       PRES   REMARKS
NWS GREEN BAY  CLEAR     55  46  71 SW5       30.05S
APPLETON       PTCLDY    57  43  58 SW7       30.07
OSHKOSH        CLEAR     55  45  68 S5        30.07S
FOND DU LAC    CLEAR     53  44  71 SW3       30.08S
$$

WIZ022-050-052-170200-
EAST CENTRAL WISCONSIN

CITY           SKY/WX    TMP DP  RH WIND       PRES   REMARKS
STURGEON BAY   CLEAR     55  45  67 SW7       30.04S
MANITOWOC      CLEAR     56  46  69 SW3       30.07S
SHEBOYGAN      CLEAR     52  45  77 S3        30.08S
$$

LMZ563-521-522-541>543-170200-
LAKESHORE

STATION/POSITION TIME  TEMP    WIND        PRES    VSBY  WAVE
                       AIR SEA DIR/SP/G                  HT/PER
                 (UTC) (F)     (DEG/KT/KT) (MB)    (MI)  (FT/S)
SHEBOYGAN LKSHOR 0100   56 49  220/  8/  9 1018.9R
KEWAUNEE LKSHORE 0100   58     230/  5/  8 1016.6S
NORTHPORT PIER   0100   58     170/  3/  5 1015.9S
N MID LAKE BUOY  0100   59 58  220/ 16/ 19 1015.7F         3/ 5
S GREEN BAY BUOY 0000   62     VRB 10/ 12  1017.8F
CHAMBERS ISLAND  0100   60     200/  5/ 11 1016.3S
MENOMINEE LKSHOR 0100   60     230/  7/ 10 1016.9R
$$



USA.gov is the U.S. government's official web portal to all federal, state and local government web resources and services.